{"data":{"norad_id":59530,"intl_designator":"2024-073V","name":"STARLINK-31392","alt_names":[],"object_type":"PAYLOAD","status":"ACTIVE","operator":null,"country":"US","launch_date":"2024-04-17","launch_site_code":"AFETR","launch_vehicle":null,"mission":null,"orbit_class":"UNKNOWN","rcs_meters":null,"size_class":null,"mass_kg":null,"dimensions":null,"purposes":["comms"],"wikipedia_slug":null,"has_3d_model":false,"image_url":null,"decayed_at":null,"tle_current":{"epoch":"2026-05-24T23:40:06.391776Z","epoch_age_seconds":69466,"freshness":"FRESH","line1":"1 59530U 24073V   26144.98618509 -.00006530  00000+0 -22795-3 0  9994","line2":"2 59530  43.0016 247.1784 0001463 268.5307  91.5377 15.27580926117844","mean_motion":15.27580926,"eccentricity":0.0001463,"inclination_deg":43.0016,"raan_deg":247.1784,"arg_perigee_deg":268.5307,"mean_anomaly_deg":91.5377,"bstar":-0.00022795,"rev_number":11784,"period_min":94.266691570355,"perigee_km":482.04253214373,"apogee_km":484.05011438412,"semimajor_km":6861.1833232639,"source":"CELESTRAK","updated_at":"2026-05-25T13:38:18.977388Z"}}}